Home   Weather   Illnau-Effretikon   Past weeks

Flag for Switzerland Past Weather in Illnau-Effretikon, Zurich, Switzerland — Yesterday and Last 2 Weeks

Now
51 °F

Cool.


Feels Like: 51 °F
Forecast: 31 / 56 °F
Wind: 2 mph from West

Location: Zuerich-Fluntern

Current Time: Feb 26, 2017 at 3:48:32 pm

Latest Report: Feb 26, 2017 at 2:00 pm


Visibility: N/A

Pressure: 30.04 "Hg (28.24 "Hg at 514m altitude)

Humidity: 42%

Dew Point: 28 °F

Location of Illnau-EffretikonLocation

Past Weather in Illnau-Effretikon — Graph

°F

Illnau-Effretikon Temperature Yesterday

Maximum temperature yesterday: 45 °F (at 5:00 pm)
Minimum temperature yesterday: 29 °F (at 5:00 am)
Average temperature yesterday: 36 °F

High & Low Weather Summary for the Past Weeks

 TemperatureHumidityPressure
High66 °F (Feb 23, 3:00 pm)100% (Feb 12, 7:00 am)30.65 "Hg (Feb 12, 7:00 am)
Low29 °F (Feb 14, 8:00 am)17% (Feb 23, 4:00 pm)29.59 "Hg (Feb 23, 5:00 pm)
Average40 °F78%30.25 "Hg
* Reported Feb 11 2:00 pm — Feb 26 2:00 pm, Illnau-Effretikon, Weather by CustomWeather, © 2017

Note: Actual official high and low records may vary slightly from our data, if they occured in-between our weather recording intervals... More about our weather records

Advertising

Illnau-Effretikon Weather History for the Previous 24 Hours

Scroll right to see more
 ConditionsComfort  
Time TempWeatherWind HumidityBarometerVisibility
2:00 pm
Sun, Feb 26
51 °FCool.2 mph42%30.04 "HgN/A
1:00 pm49 °FOvercast.2 mph50%30.08 "HgN/A
12:00 pm48 °FCool.5 mph51%30.11 "HgN/A
11:00 am42 °FQuite cool.2 mph65%30.15 "HgN/A
10:00 am39 °FChilly.1 mph77%30.16 "HgN/A
9:00 am37 °FChilly.1 mph77%30.16 "HgN/A
8:00 am35 °FChilly.1 mph82%30.15 "HgN/A
7:00 am34 °FChilly.1 mph85%30.15 "HgN/A
6:00 am35 °FChilly.1 mph83%30.14 "HgN/A
5:00 am34 °FChilly.5 mph89%30.15 "HgN/A
4:00 am35 °FChilly.1 mph85%30.16 "HgN/A
3:00 am35 °FChilly.1 mph85%30.15 "HgN/A
2:00 am35 °FChilly.2 mph85%30.15 "HgN/A
1:00 am35 °FChilly.1 mph90%30.16 "HgN/A
12:00 am36 °FChilly.2 mph81%30.16 "HgN/A
11:00 pm
Sat, Feb 25
37 °FChilly.2 mph78%30.17 "HgN/A
10:00 pm36 °FChilly.1 mph81%30.18 "HgN/A
9:00 pm37 °FChilly.2 mph76%30.17 "HgN/A
8:00 pm39 °FChilly.1 mph69%30.17 "HgN/A
7:00 pm39 °FPassing clouds.2 mph68%30.19 "HgN/A
6:00 pm42 °FQuite cool.1 mph61%30.16 "HgN/A
5:00 pm45 °FQuite cool.3 mph52%30.15 "HgN/A
4:00 pm45 °FQuite cool.3 mph55%30.14 "HgN/A
3:00 pm43 °FQuite cool.3 mph58%30.15 "HgN/A
Weather by CustomWeather, © 2017

See weather overviewHow to use our weather pages

LIVE ANNULAR SOLAR ECLIPSE – Watch the eclipse as it happens